Flag for Argentina Weather past 2 weeks in Resistencia, Chaco, Argentina

Now
64 °F

Clear.


Feels Like: 64 °F
Forecast: 62 / 77 °F
Wind: 9 mph from West

Location: Resistencia Aero.

Current Time: Mar 29, 2015 at 1:50:48 AM

Latest Report: Mar 29, 2015 at 1:00 AM


Visibility: 10 mi

Pressure: 30.04 "Hg

Humidity: 88%

Dew point: 61 °F

Location of ResistenciaLocation

Historic Weather in Resistencia — Graph

°F

Resistencia temperature yesterday

Maximum temperature yesterday: 68 °F (at 12:00 AM)
Minimum temperature yesterday: 64 °F (at 9:00 AM)
Average temperature yesterday: 67 °F

Past Weeks' High & Low Weather Summary

 TemperatureHumidityPressure
High97 °F (Mar 19, 3:00 PM)100% (Mar 16, 7:00 AM)30.12 "Hg (Mar 16, 7:00 AM)
Low55 °F (Mar 22, 5:00 AM)39% (Mar 14, 3:00 PM)29.74 "Hg (Mar 14, 5:00 PM)
Average76 °F75%29.94 "Hg
* Reported Mar 14 1:00 AM — Mar 29 1:00 AM, Resistencia, Weather by CustomWeather, © 2015

Note: Actual official high and low records may vary slightly from our data, if they occured in-between our weather recording intervals... More about our weather records

Advertising

Resistencia weather history for previous 24 hours

 ConditionsComfort  
Time TempWeatherWind HumidityBarometerVisibility
1:00 AM
Sun, Mar 29
64 °FClear.9 mph88%30.04 "Hg10 mi
12:00 AM64 °FClear.6 mph94%30.04 "Hg10 mi
11:00 PM
Sat, Mar 28
66 °FMostly cloudy.15 mph83%30.07 "HgN/A
10:00 PM66 °FLight rain. Mostly cloudy.9 mph94%30.07 "HgN/A
9:00 PM66 °FLight rain. Mostly cloudy.9 mph94%30.07 "HgN/A
8:00 PM66 °FLight rain. Mostly cloudy.9 mph94%30.04 "Hg5 mi
7:00 PM66 °FLight rain. Mostly cloudy.6 mph94%30.04 "HgN/A
6:00 PM68 °FThunderstorms. Mostly cloudy.9 mph88%30.04 "HgN/A
5:00 PM68 °FLight rain. Mostly cloudy.6 mph88%30.04 "HgN/A
4:00 PM68 °FMostly cloudy.6 mph83%30.04 "HgN/A
3:00 PM68 °FLight rain. Broken clouds.9 mph88%30.07 "Hg4 mi
2:00 PM66 °FLight rain. More clouds than sun.2 mph94%30.07 "Hg4 mi
1:00 PM66 °FLight rain. More clouds than sun.2 mph88%30.12 "Hg4 mi
12:00 PM66 °FLight rain. More clouds than sun.2 mph88%30.09 "Hg5 mi
11:00 AM64 °FRain. Overcast.2 mph94%30.12 "Hg2 mi
10:00 AM64 °FRain. Overcast.2 mph100%30.12 "Hg1 mi
9:00 AM64 °FThunderstorms. Overcast.6 mph94%30.09 "Hg5 mi
7:00 AM66 °FSunny.2 mph88%30.07 "Hg10 mi
6:00 AM66 °FClear.6 mph88%30.04 "Hg10 mi
5:00 AM66 °FClear.6 mph88%30.04 "Hg10 mi
4:00 AM68 °FClear.6 mph83%30.04 "Hg10 mi
3:00 AM68 °FClear.6 mph88%30.04 "Hg10 mi
2:00 AM68 °FClear.6 mph88%30.07 "Hg10 mi
1:00 AM68 °FClear.6 mph88%30.07 "Hg10 mi
Weather by CustomWeather, © 2015

See weather overviewHow to use our weather pages